Starlink 31422

operational
NORAD ID: 59354 Int'l Des: 2024-060 Owner: SPXS Country: US Constellation: starlink
LEOCIRCULAR

Starlink 31422について

説明を読み込み中...

リアルタイム位置

3D地球を読み込み中...

次回通過

高度履歴

Altitude vs Time

uPlot chart will show altitude changes over time

軌道要素

1 59354U 24060G 25353.36478233 -.00000604 00000-0 -12435-4 0 9993
2 59354 43.0009 353.8841 0001069 266.6865 93.3864 15.27584771 97771
Epoch: Dec 19, 2025 • Age: 13 hours

現在のステータス

高度 482.9 km
速度 7.63 km/s
衛星直下点 21.43°N, 34.82°W
打ち上げ日 Mar 31, 2024
運用期間 1.7 years
タイプ internet

技術仕様

分類 Payload
質量 730.00 kg
乾燥質量 700.00 kg
総質量 730.00 kg
長さ 0.30 m
直径 4.10 m
スパン 29.00 m
形状 Box + pan
製造者 SPXS
バスタイプ Starlink V2M
フェーズステータス In Orbit
所有者/国 SPXS/US

大規模コンステレーション

Loading constellations...